星链-4567 (STARLINK-4567 )

导读

STARLINK-4567是美国太空探索技术公司星链互联网卫星星座的一员,于2022年10月5日发射入轨。星链星座旨在为全球提供高速低延迟互联网服务,该卫星服役后承担卫星信号中继任务,截至2026年3月已在轨运行超三年,持续为用户提供宽带互联网接入服务。

Basic Information
目录编号:
53970
目录名称:
STARLINK-4567
国际标识:
2022-125G
轨道中心:
EARTH
卫星名称:
星链-4567
卫星全名:
星链-4567 (STARLINK-4567 )
卫星状态:
在轨 (已飞行1430 天)
发射日期:
2022-10-05 UTC
国别 :
美国 (US)
星等 :
--
Orbit Information
数据来源 国际轨道数据 AOE轨道数据
星历时间 2026-09-03T23:54:46+0800
13小时前
查看轨道信息
2026-09-03T23:00:00+0800
14小时前
查看轨道信息
半长轴 6837.89km 6837.835km
偏心率 0.0001284 0.0001568
轨道倾角 53.161° 53.160°
近地点辐角 89.322° 71.232°
升交点赤经 130.965° 131.144°
平近点角 270.793° 78.561°
近地点 458.875km 458.625km
远地点 460.631km 460.771km
周期 93.787分钟 93.786分钟
每日圈数 15.353934 15.35412
Detailed Information
固有亮度:
5
最大亮度:
2.5
卫星平台:
Starlink v1.5
覆盖范围:
全球
运营商:
太空探索技术公司
运营商所在国:
美国
制造商(研发单位):
太空探索技术公司
制造商所在国:
美国
使用方式:
暂无
Satellite Introduction
星链(Starlink)计划是由太空探索技术公司(SpaceX)提出的一个巨型低轨卫星互联网星座项目,计划在2019年至2024年间在太空搭建由约1.2万颗卫星组成的“星链”网络,其中1584颗将部署在地球上空550千米处的近地轨道,并从2020年开始工作。该卫星仍在工作。
2D Orbit Map
3D Orbit Map
Orbit Altitude Analysis Chart
Orbit Inclination Analysis Chart
Orbit Comprehensive Analysis Chart
View Comprehensive Chart
Conjunction Data List
Event ID Objects TCA Miss Dist (km) Collision Risk Probability Collision Risk Index (CRI) Action
CDM_260904-025405-397005-719624
2026-09-04T
02:54:16+0000
2.300 km
极远距离
2.062095E-6 低风险 0.41
CDM_260902-202705-397005-900422
2026-09-02T
20:27:09+0000
2.663 km
极远距离
1.399404E-6 低风险 0.38
CDM_260905-064205-397006-935921
2026-09-05T
06:42:42+0000
2.426 km
极远距离
1.346187E-6 低风险 0.38
CDM_260904-085405-397005-838222
2026-09-04T
08:54:22+0000
2.814 km
极远距离
1.198034E-6 低风险 0.37
CDM_260901-064105-397006-694221
2026-09-01T
06:41:37+0000
2.943 km
极远距离
1.125012E-6 低风险 0.36
CDM_260827-215605-112005-397021
2026-08-27T
21:56:09+0000
2.571 km
极远距离
1.108322E-6 低风险 0.36